Regional Weather Roundup
Issued by NWS

Home | Current Version | Previous Version | Text Only | Print | Product List | Glossary On
Versions: 1 2 3 4 5 6 7 8 9 10 11 12 13 14 15 16 17 18 19 20 21 22 23 24 25 26 27 28 29 30 31 32 33 34 35 36 37 38 39 40 41 42 43 44 45 46 47 48 49 50
000
ASHW40 PHFO 282243
RWRHI

WEATHER ROUNDUP FOR HAWAII
NATIONAL WEATHER SERVICE HONOLULU HI
1200 PM HST MON JUL 28 2014

THIS IS AN AUTOMATED REPORT THAT HAS NOT BEEN QUALITY CONTROLLED.

NOTE..."FAIR" INDICATES FEW OR NO CLOUDS BELOW 12,000 FEET WITH NO
SIGNIFICANT WEATHER AND/OR OBSTRUCTIONS TO VISIBILITY.

* - THESE SITES REPORT LIMITED FIELDS

HIZ001>004-282300-
KAUAI-NIIHAU-

CITY           SKY/WX    TMP DP  RH WIND       PRES   REMARKS
LIHUE APT      PTSUNNY   85  70  60 NE13      30.07S
PORT ALLEN*      N/A     86 N/A N/A E17G25      N/A
POIPU*           N/A     86 N/A N/A NE9G20      N/A
PRINCEVILLE*   NOT AVBL
KOKOLE POINT*  NOT AVBL
MOLOAA DAIRY*  NOT AVBL
WAIMEA HTS*      N/A     90  61  37 E13G22      N/A
PUU OPAE*        N/A     75  68  78 W1G12       N/A
PUU LUA*       NOT AVBL
MAKAHA RIDGE*    N/A     82  68  61 W1          N/A
$$

HIZ005>011-282300-
OAHU-

CITY           SKY/WX    TMP DP  RH WIND       PRES   REMARKS
HONOLULU       MOSUNNY   87  67  51 NE13G21   30.03S HX  90
KALAELOA       PTSUNNY   85  67  54 E8G17     30.04S
KANEOHE MCB    MOSUNNY   84  67  56 NE10G18   30.05S
WHEELER FIELD  FAIR      82  66  56 E8G18     30.05S
BELLOWS*         N/A    N/A N/A N/A NE15        N/A
KAHUKU*          N/A    N/A N/A N/A NE13G24     N/A
WHEELER*       NOT AVBL
WAIANAE HARBOR NOT AVBL
DILLINGHAM*      N/A     93  70  46 N8G16       N/A  HX  99
KAHUKU TRN*      N/A     82  72  69 E14G26      N/A
KAWAILOA*      NOT AVBL
KII*             N/A     82  73  74 CALM        N/A
MAKUA RANGE*     N/A     88  70  55 W7          N/A  HX  92
OAHU FOREST NW   N/A     70  70 100 N18G31      N/A
SCHOFIELD BRK*   N/A     81  64  57 MISG        N/A
SCHOFIELD S*   NOT AVBL
WAIANAE VLY*     N/A     90  63  40 SE6G23      N/A  HX  90
KUAOKALA*        N/A     81  66  61 CALM        N/A
HONOULIUULI*   NOT AVBL
MOKUOLOE IS*     N/A    N/A N/A N/A MISG        N/A
PALEHUA*         N/A     93  68  43 CALM        N/A  HX  97
WAIAWA PHB*    NOT AVBL
$$

HIZ012>013-282300-
MOLOKAI-

CITY           SKY/WX    TMP DP  RH WIND       PRES   REMARKS
MOLOKAI AIRPT  MOSUNNY   85  71  63 NE15G24   30.02F HX  90
KALAUPAPA      NOT AVBL
MAKAPULAPAI*     N/A     84  72  65 E20G30      N/A
MOLOKAI 1*       N/A     81  66  61 N5G15       N/A
PUU ALII*        N/A     72  62  70 E3G12       N/A
$$

HIZ016-282300-
KAHOOLAWE-

CITY           SKY/WX    TMP DP  RH WIND       PRES   REMARKS
KAHOOLAWE*       N/A     79 N/A N/A E25G33      N/A
HAKIOAWA*        N/A     80  67  63 MISG      30.13F
HONOKANAIA*      N/A     86  69  55 NE21G37   30.02S HX  90
KANELOA*         N/A     81  70  69 E25G37    30.12S
KEALIALALO*      N/A    N/A N/A N/A E22G41    30.33F
LUA MAKIKA*    NOT AVBL
$$

HIZ014>015-282300-
LANAI-

CITY           SKY/WX    TMP DP  RH WIND       PRES   REMARKS
LANAI CITY     FAIR      84  65  52 VRB7      30.08S
LANAI 1*         N/A     81  73  78 NE18G31     N/A
$$

HIZ017>028-282300-
MAUI-

CITY           SKY/WX    TMP DP  RH WIND       PRES   REMARKS
KAHULUI        MOSUNNY   88  69  53 NE22G33   30.00F HX  92
KAPALUA-W MAUI MOSUNNY   82  68  61 NE14G25   30.03
HANA AIRPORT   MOSUNNY   84  72  65 E8        30.07F
HANA*            N/A     82 N/A N/A E10G16      N/A
HALEAKALA SUMM   N/A     54  37  54 E13G45      N/A
MAALAEA BAY*   NOT AVBL
HALEAKALA*     NOT AVBL
KAUPO GAP*       N/A     82  64  54 E6G15       N/A
KULA 1*          N/A     70  43  37 NW6G12      N/A
$$

HIZ023>026-282300-
BIG ISLAND OF HAWAII COAST AND LOWER SLOPES-

CITY           SKY/WX    TMP DP  RH WIND       PRES   REMARKS
KAILUA KONA    PTSUNNY   85  72  65 S13       29.98F HX  91
HILO           PTSUNNY   82  72  71 E10       30.05F
HONOKAA*       NOT AVBL
KAWAIHAE MWT*    N/A     84 N/A N/A W10         N/A
KAWAIHAE*        N/A     82 N/A N/A W12         N/A
SOUTH POINT*     N/A     77 N/A N/A NE28G39     N/A
UPOLU AIRPORT*   N/A    N/A N/A N/A E23G35      N/A
KAMUELA*       PTCLDY    77  66  69 NE28      30.10F
HAKALAU*         N/A     63  57  81 SE3G12      N/A
KALOKO-HONOKO*   N/A     88  72  58 S9        29.97F HX  94
PALI 2*          N/A    N/A N/A N/A NE17G31     N/A
KEALAKOMO*       N/A     84  72  65 E18G24      N/A
KAUPULEHU*       N/A     88  66  48 N14G25      N/A  HX  90
KAPAPALA*        N/A     79  68  69 E12G20      N/A
LOWER KAHUKU*  NOT AVBL
PUHE CS*       NOT AVBL
PUHO CS*         N/A     85  70  60 W3G10       N/A
PTA KEAMUKU*     N/A     75  64  69 NE23G31     N/A
WAIKOLOA*        N/A     88  68  51 NE14G31     N/A  HX  91
$$

HIZ027>028-282300-
BIG ISLAND OF HAWAII INTERIOR AND SUMMMITS-

CITY           SKY/WX    TMP DP  RH WIND       PRES   REMARKS
BRADSHAW FIELD MOSUNNY   73  45  35 S15G23    30.36F
MK VISITOR CEN NOT AVBL
MAUNA KEA*       N/A     45  30  57 N8          N/A
MAUNA LOA*       N/A     50  39  66 MISG        N/A
MAUNA LOA 1*     N/A     54  41  62 MISG        N/A
PTA KIPUKA*      N/A     73  57  56 NW12G18     N/A
PTA RANGE 17*    N/A     72  55  56 W8G14       N/A
PTA WEST*        N/A     77  63  61 W10G22      N/A
NENE CABIN*    NOT AVBL
AHUMOA*          N/A     71  54  55 NW8G15      N/A
PTA PORTABLE*  NOT AVBL
PUU MALI*      NOT AVBL
$$

HIC003-282300-
NORTHWEST ISLANDS-

CITY           SKY/WX    TMP DP  RH WIND       PRES   REMARKS
MIDWAY ISLAND  MOSUNNY   88  75  66 S16       30.03S HX  97
MIDWAY NOS*    NOT AVBL
FRENCH FRIGATE NOT AVBL
$$

PHZ110>124-180-282300-
BUOY REPORTS

STATION/POSITION TIME  TEMP    WIND        PRES    WAVE   SWELL
                       AIR SEA DIR/SP/G            HT/PER HT/DIR
                 (UTC) (F)     (DEG/KT/KT) (MB)    (FT/S) (FT/D)
BUOY 51001       NOT AVBL
BUOY 51101       NOT AVBL
BUOY 51100       2200   77 78   90/  8/ 10 1018.8S
BUOY 51003       2200   81 82   80/ 12/ 14 1016.4F   7/10   5
BUOY 51004       2054   80 80   80/ 17/ 21 1015.4    8/ 8   3/ 80
BARBERS PT BUOY  NOT AVBL
WAIMEA BAY BUOY  2200      80                N/A     3/ 7
KAILUA BAY BUOY  2200      80                N/A     5/10   2/ 90
LANAI BUOY       2200      81                N/A     2/17   2/200
BARBERS PT 2     2200      81                N/A     4/13   2/230
PAUWELA MAUI     2200      79                N/A     6/ 5   2/100
HILO             NOT AVBL
KANEOHE BAY BUOY 2200      80                N/A     4/ 9
HANALEI KAUAI    NOT AVBL
KAHULUI HARBOR   2200   81 81   50/ 23/ 28 1015.7F
HONOLULU HARBOR  2200   84     100/ 10/ 16 1017.1F
KILO NALU        NOT AVBL
HILO HARBOR      2200   81      50/  8/ 12 1017.0F
MOKUOLOE         2200      82              1017.7F
NAWILIWILI       2200      82                N/A
WHOTS BUOY       NOT AVBL
BUOY 51028       NOT AVBL
$$

......................KEY........................................
  SKY/WX - SKY CONDITIONS/PRESENT WEATHER
  TMP    - TEMPERATURE IN FAHRENHEIT
  DWPT   - DEWPOINT IN FAHRENHEIT
  RH     - RELATIVE HUMIDITY IN PERCENT
  WIND   - DIRECTION AND SPEED /MPH FOR ISLANDS...KTS FOR BUOYS/
  PRES   - MEAN SEA LEVEL PRESSURE IN INCHES OF HG
  VSB    - VISIBILITY IN MILES
  HX     - HEAT INDEX
  WCI    - WIND CHILL INDEX
  VRB    - VARIABLE WIND DIRECTION
  N/A    - NOT AVAILABLE



USA.gov is the U.S. government's official web portal to all federal, state and local government web resources and services.